2017 PV25
ephemeris date magn radius delta ra dec elong phase
Today18 Oct 202527.31.129 AU2.069 AU12h37m-04°52'14.1°12.4°
2017 PV25 - 2025-10-18
astro.vanbuitenen.nl


 
-1 year
-1 month
-1 day
Now
+1 day
+1 month
+1 year

The interactive orbit chart above shows the body's path through the solar system and its position at the given date. Green and blue lines are shown perpendicular to the ecliptic plane: Green if the path is above the ecliptic plane, blue if it is below. (Left-click and drag to rotate the view; Right-click and drag to move the view; Use scroll wheel to zoom in our out.)

The orbital elements of 2017 PV25 are:

            e (Eccentricity)                : 0.2289397
            a (Semimajor axis)              : 1.0629206
            i (Inclination)                 : 1.82554
            Ω (Longitude of ascending node) : 303.76965
            ω (Argument of perihelion)      : 116.05477
            M (Mean anomaly)                : 303.96025
            Epoch                           : 2025 May 05

            L (Longitude of perihelion)     : 239.83590
            B (Latitude of perihelion)      : 1.63997
            P (Orbital period in years)     : 1.10            
        

The light curve chart below shows the estimated development of the minor planet's magnitude.


The all-sky chart below shows the path of the minor planet over the same period as the light curve. The current position is marked yellow.





The following chart shows the path of the minor planet in the next few days. The field of view is optimized for (~10x50) binoculars and finderscopes.




Ephemerides:
Date       Time       RA (2000)    DEC (2000)    delta   radius  elong  phase   PA    magn
2025-10-18 00:00 UT   12 37 03.6   -04 52 17     2.069    1.129   14.1   12.4   290   27.3 
2025-10-18 14:25 UT   12 38 56.8   -05 04 40     2.071    1.132   14.2   12.5   290   27.3 
2025-10-19 00:00 UT   12 40 11.9   -05 12 53     2.072    1.133   14.2   12.5   290   27.3 
2025-10-20 00:00 UT   12 43 19.8   -05 33 22     2.074    1.136   14.4   12.6   290   27.3 
2025-10-21 00:00 UT   12 46 27.4   -05 53 44     2.076    1.140   14.5   12.7   290   27.3 
2025-10-22 00:00 UT   12 49 34.7   -06 13 59     2.078    1.143   14.7   12.8   290   27.3 
2025-10-23 00:00 UT   12 52 41.8   -06 34 07     2.080    1.146   14.8   12.8   290   27.3 
2025-10-24 00:00 UT   12 55 48.5   -06 54 07     2.081    1.150   15.0   12.9   289   27.4 
2025-10-25 00:00 UT   12 58 55.1   -07 14 00     2.083    1.153   15.1   13.0   289   27.4 
2025-10-26 00:00 UT   13 02 01.4   -07 33 45     2.085    1.156   15.3   13.1   289   27.4 
2025-10-27 00:00 UT   13 05 07.5   -07 53 22     2.087    1.160   15.5   13.2   289   27.4 
2025-10-28 00:00 UT   13 08 13.4   -08 12 51     2.088    1.163   15.6   13.3   289   27.4 


    Terminology:
            
    delta:  distance between minor planet and earth in AU
    radius: distance between minor planet and sun in AU
    magn:   magnitude (brightness) estimate    
    ra:     right ascension in hours (24h = 360deg)
    dec:    declination in degrees
    elong:  elongation in degrees (angle sun-earth-minor planet)    
    phase:  phase angle in degrees (angle sun-minor planet-earth)        
    AU:     Astronomical Unit (mean distance between earth and sun: 149597870.7 km
    

Orbital elements provided by the MPC (Minor Planet Center).
Calculations by a modified version of AAPlus, a C# implementation of the AA+ project by PJ Naughter from the algorithms presented in the book "Astronomical Algorithms" by Jean Meeus.
NGC2000 dso catalog and star labels from VizieR as provided by the Strasbourg astronomical Data Center.
Tycho2 catalog from the ESO archive.